• In Portugal
  • List of Countries
  • For 7 days
  • Water Temperature
  • Satellite Maps
  • Weather Map
  • Weather Widgets
  • user-avatar
    Login

    Hourly Weather Viedma

    Today, 16 December, Saturday

    Time Temperature Precipitation Wind Pressure Humidity
    00:00 +27°C° 0 mm 4 mps 746 mmHg 31%
    01:00 +27°C° 0 mm 6 mps 746 mmHg 30%
    02:00 +26°C° 0 mm 8 mps 745 mmHg 30%
    03:00 +26°C° 0 mm 8 mps 745 mmHg 32%
    04:00 +24°C° 0 mm 7 mps 745 mmHg 33%
    05:00 +23°C° 0 mm 7 mps 745 mmHg 35%
    06:00 +26°C° 0 mm 8 mps 745 mmHg 32%
    07:00 +27°C° 0 mm 9 mps 745 mmHg 29%
    08:00 +29°C° 0 mm 9 mps 744 mmHg 24%
    09:00 +29°C° 0 mm 9 mps 744 mmHg 23%
    10:00 +31°C° 0 mm 10 mps 744 mmHg 22%
    11:00 +32°C° 0 mm 10 mps 743 mmHg 22%
    12:00 +32°C° 0 mm 11 mps 743 mmHg 23%
    13:00 +32°C° 0 mm 12 mps 743 mmHg 24%
    14:00 +32°C° 0 mm 12 mps 743 mmHg 26%
    15:00 +26°C° 0 mm 12 mps 744 mmHg 37%
    16:00 +19°C° 0 mm 12 mps 746 mmHg 49%
    17:00 +14°C° 0 mm 12 mps 747 mmHg 61%
    18:00 +13°C° 0 mm 10 mps 748 mmHg 61%
    19:00 +13°C° 0 mm 9 mps 749 mmHg 61%
    20:00 +12°C° 0 mm 7 mps 750 mmHg 61%
    21:00 +12°C° 0 mm 7 mps 751 mmHg 59%
    22:00 +13°C° 0 mm 6 mps 751 mmHg 57%
    23:00 +13°C° 0 mm 5 mps 752 mmHg 55%

    Tomorrow, 17 December, Sunday

    Time Temperature Precipitation Wind Pressure Humidity
    00:00 +13°C° 0 mm 6 mps 753 mmHg 53%
    01:00 +14°C° 0 mm 6 mps 753 mmHg 51%
    02:00 +14°C° 0 mm 6 mps 754 mmHg 49%
    03:00 +14°C° 0 mm 6 mps 755 mmHg 48%
    04:00 +14°C° 0 mm 6 mps 756 mmHg 47%
    05:00 +14°C° 0 mm 6 mps 757 mmHg 46%
    06:00 +15°C° 0 mm 7 mps 758 mmHg 41%
    07:00 +16°C° 0 mm 8 mps 758 mmHg 36%
    08:00 +17°C° 0 mm 9 mps 759 mmHg 31%
    09:00 +18°C° 0 mm 8 mps 760 mmHg 30%
    10:00 +20°C° 0 mm 7 mps 760 mmHg 28%
    11:00 +20°C° 0 mm 6 mps 761 mmHg 26%
    12:00 +20°C° 0 mm 6 mps 761 mmHg 27%
    13:00 +21°C° 0 mm 5 mps 761 mmHg 28%
    14:00 +21°C° 0 mm 5 mps 761 mmHg 28%
    15:00 +21°C° 0 mm 4 mps 761 mmHg 28%
    16:00 +20°C° 0 mm 4 mps 761 mmHg 28%
    17:00 +20°C° 0 mm 3 mps 761 mmHg 28%
    18:00 +19°C° 0 mm 4 mps 761 mmHg 33%
    19:00 +17°C° 0 mm 5 mps 761 mmHg 37%
    20:00 +16°C° 0 mm 5 mps 761 mmHg 42%
    21:00 +16°C° 0 mm 6 mps 761 mmHg 45%
    22:00 +15°C° 0 mm 6 mps 761 mmHg 47%
    23:00 +15°C° 0 mm 6 mps 761 mmHg 50%

    Day after tomorrow, 18 December, Monday

    Time Temperature Precipitation Wind Pressure Humidity
    00:00 +15°C° 0 mm 7 mps 761 mmHg 51%
    01:00 +15°C° 0 mm 7 mps 760 mmHg 52%
    02:00 +15°C° 0 mm 8 mps 760 mmHg 52%
    03:00 +15°C° 0 mm 8 mps 759 mmHg 51%
    04:00 +15°C° 0 mm 7 mps 759 mmHg 50%
    05:00 +15°C° 0 mm 7 mps 759 mmHg 49%
    06:00 +17°C° 0 mm 7 mps 759 mmHg 42%
    07:00 +20°C° 0 mm 7 mps 759 mmHg 34%
    08:00 +22°C° 0 mm 7 mps 759 mmHg 27%
    09:00 +24°C° 0 mm 6 mps 759 mmHg 23%
    10:00 +27°C° 0 mm 6 mps 759 mmHg 19%
    11:00 +29°C° 0 mm 5 mps 759 mmHg 14%
    12:00 +30°C° 0 mm 4 mps 758 mmHg 14%
    13:00 +30°C° 0 mm 4 mps 758 mmHg 15%
    14:00 +31°C° 0 mm 3 mps 757 mmHg 15%
    15:00 +32°C° 0 mm 4 mps 757 mmHg 16%
    16:00 +32°C° 0 mm 5 mps 756 mmHg 17%
    17:00 +32°C° 0 mm 6 mps 756 mmHg 19%
    18:00 +29°C° 0 mm 6 mps 756 mmHg 22%
    19:00 +28°C° 0 mm 6 mps 756 mmHg 26%
    20:00 +26°C° 0 mm 6 mps 756 mmHg 29%
    21:00 +26°C° 0 mm 6 mps 756 mmHg 32%
    22:00 +24°C° 0 mm 7 mps 756 mmHg 34%
    23:00 +24°C° 0 mm 8 mps 756 mmHg 36%

    19 December, Tuesday

    Time Temperature Precipitation Wind Pressure Humidity
    00:00 +24°C° 0 mm 8 mps 756 mmHg 33%
    01:00 +24°C° 0 mm 8 mps 756 mmHg 30%
    02:00 +24°C° 0 mm 9 mps 755 mmHg 26%
    03:00 +24°C° 0 mm 8 mps 756 mmHg 27%
    04:00 +23°C° 0 mm 8 mps 756 mmHg 27%
    05:00 +23°C° 0 mm 8 mps 756 mmHg 28%
    06:00 +24°C° 0 mm 8 mps 757 mmHg 27%
    07:00 +27°C° 0 mm 8 mps 757 mmHg 25%
    08:00 +28°C° 0 mm 8 mps 757 mmHg 24%
    09:00 +30°C° 0 mm 7 mps 757 mmHg 23%
    10:00 +32°C° 0 mm 7 mps 757 mmHg 21%
    11:00 +34°C° 0 mm 6 mps 757 mmHg 20%
    12:00 +35°C° 0 mm 6 mps 756 mmHg 20%
    13:00 +35°C° 0 mm 5 mps 756 mmHg 20%
    14:00 +36°C° 0 mm 5 mps 755 mmHg 20%
    15:00 +35°C° 0 mm 6 mps 755 mmHg 22%
    16:00 +35°C° 0 mm 7 mps 754 mmHg 23%
    17:00 +34°C° 0 mm 8 mps 754 mmHg 24%
    18:00 +33°C° 0 mm 8 mps 753 mmHg 28%
    19:00 +31°C° 0 mm 9 mps 753 mmHg 32%
    20:00 +28°C° 0 mm 10 mps 753 mmHg 36%
    21:00 +28°C° 0.1 mm 10 mps 753 mmHg 37%
    22:00 +28°C° 0.1 mm 10 mps 752 mmHg 37%
    23:00 +29°C° 0.1 mm 10 mps 752 mmHg 38%

    20 December, Wednesday

    Time Temperature Precipitation Wind Pressure Humidity
    00:00 +28°C° 0 mm 10 mps 752 mmHg 38%
    01:00 +28°C° 0 mm 10 mps 751 mmHg 38%
    02:00 +28°C° 0 mm 11 mps 751 mmHg 38%
    03:00 +28°C° 0 mm 11 mps 751 mmHg 42%
    04:00 +28°C° 0 mm 11 mps 751 mmHg 46%
    05:00 +27°C° 0 mm 11 mps 750 mmHg 50%
    06:00 +29°C° 0 mm 11 mps 750 mmHg 49%
    07:00 +31°C° 0 mm 11 mps 750 mmHg 48%
    08:00 +32°C° 0 mm 11 mps 750 mmHg 46%
    09:00 +34°C° 0 mm 11 mps 750 mmHg 39%
    10:00 +36°C° 0 mm 11 mps 749 mmHg 32%
    11:00 +38°C° 0 mm 10 mps 749 mmHg 24%
    12:00 +39°C° 0 mm 10 mps 748 mmHg 22%
    13:00 +39°C° 0 mm 9 mps 748 mmHg 20%
    14:00 +39°C° 0 mm 9 mps 747 mmHg 18%
    15:00 +39°C° 0 mm 8 mps 747 mmHg 17%
    16:00 +40°C° 0 mm 8 mps 746 mmHg 15%
    17:00 +40°C° 0 mm 8 mps 746 mmHg 14%
    18:00 +38°C° 0 mm 7 mps 746 mmHg 16%
    19:00 +36°C° 0 mm 6 mps 746 mmHg 17%
    20:00 +34°C° 0 mm 5 mps 746 mmHg 19%
    21:00 +33°C° 0 mm 5 mps 746 mmHg 24%
    22:00 +30°C° 0 mm 5 mps 747 mmHg 29%
    23:00 +28°C° 0 mm 5 mps 747 mmHg 35%

    21 December, Thursday

    Time Temperature Precipitation Wind Pressure Humidity
    00:00 +28°C° 0.1 mm 6 mps 748 mmHg 36%
    01:00 +27°C° 0.1 mm 6 mps 748 mmHg 37%
    02:00 +26°C° 0.1 mm 6 mps 749 mmHg 38%
    03:00 +23°C° 0 mm 7 mps 750 mmHg 39%
    04:00 +21°C° 0 mm 8 mps 751 mmHg 40%
    05:00 +18°C° 0 mm 9 mps 752 mmHg 41%
    06:00 +18°C° 0 mm 9 mps 753 mmHg 38%
    07:00 +19°C° 0 mm 9 mps 754 mmHg 34%
    08:00 +21°C° 0 mm 8 mps 755 mmHg 31%
    09:00 +21°C° 0 mm 7 mps 755 mmHg 29%
    10:00 +22°C° 0 mm 7 mps 755 mmHg 27%
    11:00 +23°C° 0 mm 6 mps 756 mmHg 25%
    12:00 +23°C° 0 mm 6 mps 755 mmHg 24%
    13:00 +23°C° 0 mm 5 mps 755 mmHg 23%
    14:00 +25°C° 0 mm 4 mps 755 mmHg 22%
    15:00 +23°C° 0 mm 5 mps 755 mmHg 23%
    16:00 +23°C° 0 mm 5 mps 754 mmHg 23%
    17:00 +23°C° 0 mm 5 mps 754 mmHg 24%
    18:00 +21°C° 0 mm 7 mps 754 mmHg 30%
    19:00 +20°C° 0 mm 8 mps 754 mmHg 36%
    20:00 +17°C° 0 mm 9 mps 754 mmHg 42%
    21:00 +17°C° 0 mm 10 mps 754 mmHg 44%
    22:00 +17°C° 0 mm 10 mps 754 mmHg 46%
    23:00 +16°C° 0 mm 10 mps 753 mmHg 49%
    Show more

    XHprof extension not loaded